Regional Weather Roundup
Issued by NWS

Home | Current Version | Previous Version | Text Only | Print | Product List | Glossary Off
Versions: 1 2 3 4 5 6 7 8 9 10 11 12 13 14 15 16 17 18 19 20 21 22 23 24 25 26 27 28 29 30 31 32 33 34 35 36 37 38 39 40 41 42 43 44 45 46 47 48 49 50

000
ASUS45 KPSR 261800
RWRAZ

ARIZONA HOURLY REGIONAL WEATHER ROUNDUP
NATIONAL WEATHER SERVICE PHOENIX AZ
1100 AM MST TUE MAY 26 2015

NOTE: FAIR INDICATES FEW OR NO CLOUDS BELOW 12,000 FEET WITH NO
SIGNIFICANT WEATHER AND/OR OBSTRUCTIONS TO VISIBILITY.

AZZ001>003-036-261900-
NORTHWEST ARIZONA

CITY           SKY/WX    TMP DP  RH WIND       PRES   REMARKS
KINGMAN        SUNNY     81  28  14 SW21G31   30.01S
6HR MIN TEMP:  56; 6HR MAX TEMP:  81;

$$

AZZ004>008-015-016-018-261900-
NORTH CENTRAL ARIZONA

CITY           SKY/WX    TMP DP  RH WIND       PRES   REMARKS
GRAND CANYON   SUNNY     65  36  34 S10G17    30.18F
6HR MIN TEMP:  35; 6HR MAX TEMP:  65;

WILLIAMS       SUNNY     64  34  32 SW13G20   30.26R
PRESCOTT       MOSUNNY   74  33  22 S13       30.11S
6HR MIN TEMP:  50; 6HR MAX TEMP:  74;

FLAGSTAFF      NOT AVBL
PAYSON         MOSUNNY   72  37  28 SW9       30.15S
PAGE           MOSUNNY   72  43  35 E3        30.06S
6HR MIN TEMP:  58; 6HR MAX TEMP:  73;

$$

AZZ009>014-017-261900-
NORTHEAST ARIZONA

CITY           SKY/WX    TMP DP  RH WIND       PRES   REMARKS
WINSLOW        NOT AVBL
SAINT JOHNS    MOSUNNY   69  34  27 CALM      30.14S
6HR MIN TEMP:  40; 6HR MAX TEMP:  71;

WINDOW ROCK    MOSUNNY   67  35  30 W12       30.19S
6HR MIN TEMP:  35; 6HR MAX TEMP:  67;

$$

AZZ023-261900-
GREATER PHOENIX AREA

CITY           SKY/WX    TMP DP  RH WIND       PRES   REMARKS
PHOENIX        MOSUNNY   86  40  19 VRB6      29.93F
6HR MIN TEMP:  71; 6HR MAX TEMP:  86;

GLENDALE       MOSUNNY   84  39  20 VRB5      29.95F
DEER VALLEY    SUNNY     82  36  19 VRB6      29.95S
6HR MIN TEMP:  63; 6HR MAX TEMP:  83;

SCOTTSDALE     SUNNY     83  37  19 CALM      29.97S
6HR MIN TEMP:  67; 6HR MAX TEMP:  83;

MESA-FALCON    MOSUNNY   81  37  21 W6        29.95S
MESA-GATEWAY   MOSUNNY   82  39  21 SW3       29.97S
CHANDLER       MOSUNNY   84  41  21 VRB5      29.95F
$$

AZZ027-028-261900-
SOUTHWEST MARICOPA COUNTY AND PINAL COUNTY

CITY           SKY/WX    TMP DP  RH WIND       PRES   REMARKS
CASA GRANDE    SUNNY     82  39  21 W3        29.95F
6HR MIN TEMP:  61; 6HR MAX TEMP:  82;

$$

AZZ503-504-507>509-261900-
SOUTHEAST ARIZONA

CITY           SKY/WX    TMP DP  RH WIND       PRES   REMARKS
TUCSON         SUNNY     82  34  17 VRB3      30.01F
6HR MIN TEMP:  60; 6HR MAX TEMP:  83;

RYAN FIELD       N/A     84  36  17 CALM      30.00F
NOGALES        SUNNY     79  27  14 CALM      30.07S
6HR MIN TEMP:  50; 6HR MAX TEMP:  82;

SAFFORD        SUNNY     81  36  19 VRB5      30.02S
6HR MIN TEMP:  55; 6HR MAX TEMP:  82;

$$

AZZ020-021-025-026-031-261900-
SOUTHWEST ARIZONA

CITY           SKY/WX    TMP DP  RH WIND       PRES   REMARKS
YUMA           NOT AVBL
$$

CAZ031-033-041-043-047-048-061-261900-
SOUTHERN CALIFORNIA

CITY           SKY/WX    TMP DP  RH WIND       PRES   REMARKS
DOWNTOWN L.A.  NOT AVBL
L.A. AIRPORT   CLOUDY    61  55  81 W9        30.01S
6HR MIN TEMP:  59; 6HR MAX TEMP:  61;

SAN DIEGO      CLOUDY    64  55  72 NW7       30.02R
6HR MIN TEMP:  62; 6HR MAX TEMP:  64; 6HR PCP: TRACE;

BURBANK        CLOUDY    62  53  72 SE3       30.00R
6HR MIN TEMP:  60; 6HR MAX TEMP:  63;

ONTARIO        CLOUDY    64  53  67 CALM      30.00R HAZE
6HR MIN TEMP:  58; 6HR MAX TEMP:  64; 6HR PCP: TRACE;

RIVERSIDE      CLOUDY    64  54  69 VRB5      29.99F
6HR MIN TEMP:  59; 6HR MAX TEMP:  64;

PALM SPRINGS   SUNNY     82  47  29 CALM      29.91S
6HR MIN TEMP:  64; 6HR MAX TEMP:  84;

EL CENTRO NAS  MOSUNNY   82  53  36 VRB5      29.90S
6HR MIN TEMP:  59; 6HR MAX TEMP:  82;

IMPERIAL       SUNNY     80  56  43 CALM      29.88S
6HR MIN TEMP:  65; 6HR MAX TEMP:  81;

BLYTHE         SUNNY     84  41  21 S10       29.90F
6HR MIN TEMP:  63; 6HR MAX TEMP:  85;

$$

NVZ020-UTZ003-261900-
SOUTHERN NEVADA-UTAH

CITY           SKY/WX    TMP DP  RH WIND       PRES   REMARKS
LAS VEGAS      NOT AVBL
SALT LAKE CITY LGT RAIN  57  52  83 S12       30.05R
6HR MIN TEMP:  57; 6HR MAX TEMP:  61; 6HR PCP:  0.04;

$$

NMZ009-TXZ055-261900-
NEW MEXICO-WEST TEXAS

CITY           SKY/WX    TMP DP  RH WIND       PRES   REMARKS
ALBUQUERQUE    PTSUNNY   66  44  45 CALM      30.15S
6HR MIN TEMP:  47; 6HR MAX TEMP:  67;

EL PASO        PTSUNNY   83  36  18 SW7       30.07F
6HR MIN TEMP:  57; 6HR MAX TEMP:  83;

$$


........................KEY........................
SKY/WX - SKY CONDITION/WEATHER
TMP    - TEMPERATURE IN FAHRENHEIT
DP     - DEW POINT IN FAHRENHEIT
RH     - RELATIVE HUMIDITY IN PERCENT
WIND   - DIRECTION AND SPEED IN MILES PER HOUR (MPH)
VRB    - VARIABLE WIND DIRECTION
PRES   - MEAN SEA LEVEL PRESSURE IN INCHES OF MERCURY
         F - FALLING PRESSURE   R - RISING PRESSURE
         S - STEADY PRESSURE
VSB    - VISIBILITY IN MILES
HX     - HEAT INDEX IN FAHRENHEIT
WCI    - WIND CHILL INDEX IN FAHRENHEIT
TC     - TEMPERATURE IN CELSIUS WHICH IS ALSO KNOWN AS
         TEMPERATURE IN CENTIGRADE
AFB    - AIR FORCE BASE
         LUKE AFB IS LUKE AIR FORCE BASE
         DAVIS-MONTHAN IS DAVIS-MONTHAN AIR FORCE BASE
NAS    - NAVAL AIR STATION
         EL CENTRO NAS IS EL CENTRO NAVAL AIR STATION
N/A    - NOT AVAILABLE




USA.gov is the U.S. government's official web portal to all federal, state and local government web resources and services.